Regional Weather Roundup
Issued by NWS

Home | Current Version | Previous Version | Graphics & Text | Print | Product List | Glossary On
Versions: 1 2 3 4 5 6 7 8 9 10 11 12 13 14 15 16 17 18 19 20 21 22 23 24 25 26 27 28 29 30 31 32 33 34 35 36 37 38 39 40 41 42 43 44 45 46 47 48 49 50
000
ASUS44 KMEG 191110
RWRTN
TENNESSEE HOURLY STATE WEATHER ROUNDUP
NATIONAL WEATHER SERVICE MEMPHIS TN
500 AM CST SUN FEB 19 2017

TNZ002-004-019-021-049-052-054-088>092-191200-
WEST TENNESSEE

CITY           SKY/WX    TMP DP  RH WIND       PRES   REMARKS
MEMPHIS INTL   CLEAR     47  46  97 S3        30.02R
NWS MEMPHIS      N/A     46 N/A N/A MISG        N/A
JACKSON        PTCLDY    43  43 100 S3        30.02R FOG
UNION CITY     CLOUDY   N/A N/A N/A CALM      29.99R VSB 1/4
PARIS            N/A     39  39 100 CALM      30.00S VSB 1/4
HUNTINGDON     FOG       45  45 100 CALM      29.99S VSB 0
$$

TNZ008-025-027-028-033-062-065-066-191200-
NORTH MIDDLE TENNESSEE

CITY           SKY/WX    TMP DP  RH WIND       PRES   REMARKS
NASHVILLE      CLEAR     47  45  93 CALM      30.03R FOG
PORTLAND       MOCLDY    43  43 100 S3        30.03R FOG
CLARKSVILLE    FOG       41  40  96 SE3       30.02R VSB 1/4
SMYRNA         FOG       43  43 100 CALM      30.04R VSB 1/4
COOKEVILLE     CLOUDY    48  48 100 CALM      30.02R FOG
GALLATIN       FOG       43  43 100 CALM      30.06R VSB 1/2
CROSSVILLE     CLOUDY    47  46  97 CALM      30.03R
$$

TNZ061-075-076-078-094-096-097-191200-
SOUTH MIDDLE TENNESSEE

CITY           SKY/WX    TMP DP  RH WIND       PRES   REMARKS
FAYETTEVILLE   FOG       46  46 100 CALM      30.03R VSB 0
TULLAHOMA      CLOUDY    48  46  93 CALM      30.04R
WINCHESTER     CLOUDY    48  48 100 CALM      30.04R
MCMINNVILLE    CLOUDY    48  48 100 CALM      30.03R
COLUMBIA       CLOUDY   N/A N/A N/A CALM      30.01S VSB 1/4
SHELBYVILLE    CLOUDY    46  46 100 CALM      30.04R VSB 1/4
$$

TNZ017-018-042-046-047-191200-
NORTHEAST TENNESSEE

CITY           SKY/WX    TMP DP  RH WIND       PRES   REMARKS
TRI CITIES     CLOUDY    48  46  93 CALM      30.01S FOG
ELIZABETHTON   CLOUDY    48  48 100 SW3       30.01S FOG
$$

TNZ012-013-036-069-073-074-191200-
CENTRAL EAST TENNESSEE

CITY           SKY/WX    TMP DP  RH WIND       PRES   REMARKS
KNOXVILLE      CLOUDY    50  48  93 NW3       30.02R FOG
OAK RIDGE      FOG       50  48  93 CALM      30.05R VSB 1/4
GATLINBURG     CLOUDY    46  46 100 CALM      30.02R
MORRISTOWN     CLOUDY    50  48  93 SW6       30.01R FOG
JACKSBORO      CLOUDY    48  48 100 CALM      30.06R FOG
$$

TNZ083-085-099-191200-
SOUTHEAST TENNESSEE

CITY           SKY/WX    TMP DP  RH WIND       PRES   REMARKS
CHATTANOOGA    LGT RAIN  51  50  96 CALM      30.04R FOG
$$

SKY/WX REPORTED AS FAIR MEANS FEW OR NO CLOUDS BELOW
12 THOUSAND FEET.





USA.gov is the U.S. government's official web portal to all federal, state and local government web resources and services.